User: anonymous   Login
Location: Oshawa
(43.9000°N, 78.8670°W)
Time: 19:48:35
(UTC-04:00)
Language:

Iridium 46 - Orbit

View from above orbital plane
View from above orbital plane
View from above satellite
View from above satellite

Ground track
Ground track

The orbit data is extracted from the following two-line orbital elements,

1 24905U 97043C   16126.35669316  .00000202  00000-0  64958-4 0  9998
2 24905  86.3983  66.4563 0002130  84.9878 275.1560 14.34218400979377
Epoch (UTC): 05 May 2016 08:33:38
Eccentricity: 0.0002130
inclination: 86.3983°
perigee height: 776 km
apogee height: 779 km
right ascension of ascending node: 66.4563°
argument of perigee: 84.9878°
revolutions per day: 14.34218400
mean anomaly at epoch: 275.1560°
orbit number at epoch: 97937

The dashed part of the orbit path shows where the satellite is in the earth's shadow,  

DLR